| time (UTC) | temp F | wind direction | speed MPH | gust MPH | rain 1hr in | rain 24hr in | rain mn in | humidity % | barometer mb |
| 20260831132133 | 66 | 163 | 0.0 | 0.0 | 0.00 | 0.00 | 0.00 | 99 | 1021.3 |
| 20260831131628 | 66 | 174 | 0.0 | 0.0 | 0.00 | 0.00 | 0.00 | 99 | 1021.3 |
| 20260831131125 | 66 | 163 | 0.0 | 0.0 | 0.00 | 0.00 | 0.00 | 99 | 1021.3 |
| 20260831130619 | 65 | 160 | 0.0 | 0.0 | 0.00 | 0.00 | 0.00 | 99 | 1021.3 |
| 20260831130115 | 65 | 167 | 0.0 | 0.0 | 0.00 | 0.00 | 0.00 | 99 | 1021.7 |
| 20260831125612 | 65 | 160 | 0.0 | 0.0 | 0.00 | 0.00 | 0.00 | 99 | 1021.7 |
| 20260831125108 | 64 | 164 | 0.0 | 0.0 | 0.00 | 0.00 | 0.00 | 99 | 1021.7 |
| 20260831124605 | 64 | 169 | 0.0 | 0.0 | 0.00 | 0.00 | 0.00 | 99 | 1021.7 |
| 20260831124100 | 64 | 167 | 0.0 | 0.0 | 0.00 | 0.00 | 0.00 | 99 | 1021.3 |
| 20260831123559 | 64 | 167 | 0.0 | 0.0 | 0.00 | 0.00 | 0.00 | 99 | 1021.3 |
| 20260831123054 | 64 | 163 | 0.0 | 0.0 | 0.00 | 0.00 | 0.00 | 99 | 1021.7 |
| 20260831122549 | 64 | 161 | 0.0 | 0.0 | 0.00 | 0.00 | 0.00 | 99 | 1021.7 |
| 20260831122045 | 63 | 162 | 0.0 | 0.0 | 0.00 | 0.00 | 0.00 | 99 | 1022.1 |
| 20260831121544 | 63 | 161 | 0.0 | 0.0 | 0.00 | 0.00 | 0.00 | 99 | 1021.7 |
| 20260831121040 | 63 | 158 | 0.0 | 0.0 | 0.00 | 0.00 | 0.00 | 99 | 1022.1 |
| 20260831120540 | 63 | 161 | 0.0 | 0.0 | 0.00 | 0.00 | 0.00 | 99 | 1021.7 |
| 20260831120036 | 63 | 158 | 0.0 | 0.0 | 0.00 | 0.00 | 0.00 | 99 | 1022.1 |
| 20260831115531 | 63 | 162 | 0.0 | 0.0 | 0.00 | 0.00 | 0.00 | 99 | 1022.1 |
| 20260831115027 | 63 | 162 | 0.0 | 0.0 | 0.00 | 0.00 | 0.00 | 99 | 1022.1 |
| 20260831114525 | 63 | 158 | 0.0 | 0.0 | 0.00 | 0.00 | 0.00 | 99 | 1022.1 |
| 20260831114021 | 63 | 158 | 0.0 | 0.0 | 0.00 | 0.00 | 0.00 | 99 | 1022.1 |
| 20260831113520 | 63 | 159 | 0.0 | 0.0 | 0.00 | 0.00 | 0.00 | 99 | 1022.1 |
| 20260831113016 | 63 | 159 | 0.0 | 0.0 | 0.00 | 0.00 | 0.00 | 99 | 1022.1 |
| 20260831112515 | 63 | 161 | 0.0 | 0.0 | 0.00 | 0.00 | 0.00 | 99 | 1022.1 |
| 20260831112010 | 63 | 158 | 0.0 | 0.0 | 0.00 | 0.00 | 0.00 | 99 | 1022.1 |
| 20260831111506 | 63 | 157 | 0.0 | 0.0 | 0.00 | 0.00 | 0.00 | 99 | 1021.7 |
| 20260831111002 | 63 | 160 | 0.0 | 0.0 | 0.00 | 0.00 | 0.00 | 99 | 1021.7 |
| 20260831110502 | 63 | 158 | 0.0 | 0.0 | 0.00 | 0.00 | 0.00 | 99 | 1021.7 |
| 20260831110001 | 63 | 159 | 0.0 | 0.0 | 0.00 | 0.00 | 0.00 | 99 | 1022.1 |
| 20260831105456 | 63 | 158 | 0.0 | 0.0 | 0.00 | 0.00 | 0.00 | 99 | 1021.7 |
| 20260831104957 | 62 | 157 | 0.0 | 0.0 | 0.00 | 0.00 | 0.00 | 99 | 1022.1 |
| 20260831104453 | 62 | 153 | 0.0 | 0.0 | 0.00 | 0.00 | 0.00 | 99 | 1021.7 |
| 20260831103948 | 62 | 155 | 0.0 | 0.0 | 0.00 | 0.00 | 0.00 | 99 | 1021.7 |
| 20260831103443 | 62 | 157 | 0.0 | 0.0 | 0.00 | 0.00 | 0.00 | 99 | 1021.7 |
| 20260831102939 | 62 | 158 | 0.0 | 0.0 | 0.00 | 0.00 | 0.00 | 99 | 1021.3 |
| 20260831102439 | 62 | 158 | 0.0 | 0.0 | 0.00 | 0.00 | 0.00 | 99 | 1021.7 |
| 20260831101934 | 62 | 157 | 0.0 | 0.0 | 0.00 | 0.00 | 0.00 | 99 | 1021.3 |
| 20260831101429 | 62 | 161 | 0.0 | 0.0 | 0.00 | 0.00 | 0.00 | 99 | 1021.3 |
| 20260831100925 | 62 | 158 | 0.0 | 0.0 | 0.00 | 0.00 | 0.00 | 99 | 1021.0 |
| 20260831100421 | 62 | 157 | 0.0 | 0.0 | 0.00 | 0.00 | 0.00 | 99 | 1021.3 |
| 20260831095915 | 62 | 161 | 0.0 | 0.0 | 0.00 | 0.00 | 0.00 | 99 | 1021.3 |
| 20260831095415 | 62 | 157 | 0.0 | 0.0 | 0.00 | 0.00 | 0.00 | 99 | 1021.0 |
| 20260831094910 | 62 | 161 | 0.0 | 0.0 | 0.00 | 0.00 | 0.00 | 99 | 1021.3 |
| 20260831094406 | 62 | 165 | 0.0 | 0.0 | 0.00 | 0.00 | 0.00 | 99 | 1021.0 |
| 20260831093902 | 62 | 161 | 0.0 | 0.0 | 0.00 | 0.00 | 0.00 | 99 | 1021.0 |
| 20260831093356 | 62 | 157 | 0.0 | 0.0 | 0.00 | 0.00 | 0.00 | 99 | 1021.0 |
| 20260831092853 | 62 | 158 | 0.0 | 0.0 | 0.00 | 0.00 | 0.00 | 99 | 1021.3 |
| 20260831092348 | 62 | 158 | 0.0 | 0.0 | 0.00 | 0.00 | 0.00 | 99 | 1021.0 |
| 20260831091843 | 62 | 158 | 0.0 | 0.0 | 0.00 | 0.00 | 0.00 | 99 | 1021.3 |
| 20260831091339 | 62 | 157 | 0.0 | 0.0 | 0.00 | 0.00 | 0.00 | 99 | 1021.3 |
| 20260831090834 | 62 | 157 | 0.0 | 0.0 | 0.00 | 0.00 | 0.00 | 99 | 1021.3 |
| 20260831090330 | 62 | 158 | 0.0 | 0.0 | 0.00 | 0.00 | 0.00 | 99 | 1021.3 |
| 20260831085826 | 62 | 161 | 0.0 | 0.0 | 0.00 | 0.00 | 0.00 | 99 | 1021.3 |
| 20260831085320 | 62 | 158 | 0.0 | 0.0 | 0.00 | 0.00 | 0.00 | 99 | 1021.0 |
| 20260831084815 | 63 | 161 | 0.0 | 0.0 | 0.00 | 0.00 | 0.00 | 99 | 1021.3 |
| 20260831084312 | 63 | 161 | 0.0 | 0.0 | 0.00 | 0.00 | 0.00 | 99 | 1021.3 |
| 20260831083807 | 63 | 157 | 0.0 | 0.0 | 0.00 | 0.00 | 0.00 | 99 | 1021.0 |
| 20260831083303 | 63 | 160 | 0.0 | 0.0 | 0.00 | 0.00 | 0.00 | 99 | 1021.0 |
| 20260831082801 | 63 | 161 | 0.0 | 0.0 | 0.00 | 0.00 | 0.00 | 99 | 1021.3 |
| 20260831082256 | 63 | 158 | 0.0 | 0.0 | 0.00 | 0.00 | 0.00 | 99 | 1021.0 |
| 20260831081752 | 63 | 157 | 0.0 | 0.0 | 0.00 | 0.00 | 0.00 | 99 | 1021.3 |
| 20260831081248 | 63 | 161 | 0.0 | 0.0 | 0.00 | 0.00 | 0.00 | 99 | 1021.3 |
| 20260831080743 | 63 | 161 | 0.0 | 0.0 | 0.00 | 0.00 | 0.00 | 99 | 1021.7 |
| 20260831080237 | 62 | 161 | 0.0 | 0.0 | 0.00 | 0.00 | 0.00 | 99 | 1021.3 |
| 20260831075733 | 62 | 158 | 0.0 | 0.0 | 0.00 | 0.00 | 0.00 | 99 | 1021.3 |
| 20260831075229 | 62 | 158 | 0.0 | 0.0 | 0.00 | 0.00 | 0.00 | 99 | 1021.3 |
| 20260831074729 | 63 | 158 | 0.0 | 0.0 | 0.00 | 0.00 | 0.00 | 99 | 1021.0 |
| 20260831074228 | 63 | 158 | 0.0 | 0.0 | 0.00 | 0.00 | 0.00 | 99 | 1021.3 |
| 20260831073724 | 63 | 157 | 0.0 | 0.0 | 0.00 | 0.00 | 0.00 | 99 | 1021.0 |
| 20260831073223 | 63 | 162 | 0.0 | 0.0 | 0.00 | 0.00 | 0.00 | 99 | 1021.0 |
| 20260831072718 | 63 | 156 | 0.0 | 0.0 | 0.00 | 0.00 | 0.00 | 99 | 1021.0 |
| 20260831072215 | 63 | 158 | 0.0 | 0.0 | 0.00 | 0.00 | 0.00 | 99 | 1021.0 |
| 20260831071714 | 63 | 157 | 0.0 | 0.0 | 0.00 | 0.00 | 0.00 | 99 | 1021.0 |
| 20260831071209 | 63 | 157 | 0.0 | 0.0 | 0.00 | 0.00 | 0.00 | 99 | 1021.7 |
| 20260831070708 | 63 | 157 | 0.0 | 0.0 | 0.00 | 0.00 | 0.00 | 99 | 1021.3 |
| 20260831070202 | 63 | 157 | 0.0 | 0.0 | 0.00 | 0.00 | 0.00 | 99 | 1021.3 |
| 20260831065702 | 63 | 157 | 0.0 | 0.0 | 0.00 | 0.00 | 0.00 | 99 | 1021.3 |
| 20260831065201 | 63 | 158 | 0.0 | 0.0 | 0.00 | 0.00 | 0.00 | 99 | 1021.3 |
| 20260831064655 | 63 | 158 | 0.0 | 0.0 | 0.00 | 0.00 | 0.00 | 99 | 1021.3 |
| 20260831064151 | 63 | 158 | 0.0 | 0.0 | 0.00 | 0.00 | 0.00 | 99 | 1021.3 |
| 20260831063647 | 63 | 158 | 0.0 | 0.0 | 0.00 | 0.00 | 0.00 | 99 | 1021.0 |
| 20260831063142 | 64 | 161 | 0.0 | 0.0 | 0.00 | 0.00 | 0.00 | 99 | 1021.0 |
| 20260831062643 | 64 | 161 | 0.0 | 0.0 | 0.00 | 0.00 | 0.00 | 99 | 1021.3 |
| 20260831062142 | 64 | 164 | 0.0 | 0.0 | 0.00 | 0.00 | 0.00 | 99 | 1021.3 |
| 20260831061640 | 64 | 163 | 0.0 | 0.0 | 0.00 | 0.00 | 0.00 | 99 | 1021.3 |
| 20260831061136 | 64 | 165 | 0.0 | 0.0 | 0.00 | 0.00 | 0.00 | 99 | 1021.3 |
| 20260831060633 | 63 | 157 | 0.0 | 0.0 | 0.00 | 0.00 | 0.00 | 99 | 1021.7 |
| 20260831060132 | 63 | 157 | 0.0 | 0.0 | 0.00 | 0.00 | 0.00 | 99 | 1021.7 |
| 20260831055631 | 64 | 158 | 0.0 | 0.0 | 0.00 | 0.00 | 0.00 | 99 | 1021.7 |
| 20260831055127 | 64 | 158 | 0.0 | 0.0 | 0.00 | 0.00 | 0.00 | 99 | 1021.3 |
| 20260831054626 | 64 | 161 | 0.0 | 0.0 | 0.00 | 0.00 | 0.00 | 99 | 1022.1 |
| 20260831054121 | 64 | 165 | 0.0 | 0.0 | 0.00 | 0.00 | 0.00 | 99 | 1021.7 |
| 20260831053620 | 64 | 158 | 0.0 | 0.0 | 0.00 | 0.00 | 0.00 | 99 | 1022.1 |
| 20260831053114 | 64 | 157 | 0.0 | 0.0 | 0.00 | 0.00 | 0.00 | 99 | 1022.1 |
| 20260831052613 | 64 | 161 | 0.0 | 0.0 | 0.00 | 0.00 | 0.00 | 99 | 1022.1 |
| 20260831052113 | 64 | 161 | 0.0 | 0.0 | 0.00 | 0.00 | 0.00 | 99 | 1021.7 |
| 20260831051611 | 64 | 159 | 0.0 | 0.0 | 0.00 | 0.00 | 0.00 | 99 | 1022.1 |
| 20260831051110 | 64 | 158 | 0.0 | 0.0 | 0.00 | 0.00 | 0.00 | 99 | 1022.1 |
| 20260831050610 | 64 | 158 | 0.0 | 0.0 | 0.00 | 0.00 | 0.00 | 99 | 1022.1 |
| 20260831050108 | 64 | 158 | 0.0 | 0.0 | 0.00 | 0.00 | 0.00 | 99 | 1022.1 |
| 20260831045608 | 64 | 160 | 0.0 | 0.0 | 0.00 | 0.00 | 0.00 | 99 | 1022.4 |
| 20260831045103 | 64 | 161 | 0.0 | 0.0 | 0.00 | 0.00 | 0.00 | 99 | 1022.1 |
| 20260831044559 | 64 | 161 | 0.0 | 0.0 | 0.00 | 0.00 | 0.00 | 99 | 1022.4 |
| 20260831044054 | 64 | 160 | 0.0 | 0.0 | 0.00 | 0.00 | 0.00 | 99 | 1022.1 |
| 20260831043549 | 64 | 158 | 0.0 | 0.0 | 0.00 | 0.00 | 0.00 | 99 | 1022.1 |
| 20260831043044 | 64 | 161 | 0.0 | 0.0 | 0.00 | 0.00 | 0.00 | 99 | 1022.1 |
| 20260831042543 | 64 | 163 | 0.0 | 0.0 | 0.00 | 0.00 | 0.00 | 99 | 1022.1 |
| 20260831042039 | 64 | 162 | 0.0 | 0.0 | 0.00 | 0.00 | 0.00 | 99 | 1021.7 |
| 20260831041534 | 63 | 161 | 0.0 | 0.0 | 0.00 | 0.00 | 0.00 | 99 | 1021.7 |
| 20260831041033 | 63 | 161 | 0.0 | 0.0 | 0.00 | 0.00 | 0.00 | 99 | 1021.7 |
| 20260831040528 | 63 | 161 | 0.0 | 0.0 | 0.00 | 0.00 | 0.00 | 99 | 1021.7 |
| 20260831040027 | 63 | 161 | 0.0 | 0.0 | 0.00 | 0.04 | 0.04 | 99 | 1021.7 |
| 20260831035525 | 63 | 164 | 0.0 | 0.0 | 0.00 | 0.04 | 0.04 | 99 | 1021.7 |
| 20260831035021 | 63 | 161 | 0.0 | 0.0 | 0.00 | 0.04 | 0.04 | 99 | 1022.1 |
| 20260831034515 | 62 | 161 | 0.0 | 0.0 | 0.00 | 0.04 | 0.04 | 99 | 1021.7 |
| 20260831034010 | 62 | 157 | 0.0 | 0.0 | 0.00 | 0.04 | 0.04 | 99 | 1022.1 |
| 20260831033506 | 62 | 157 | 0.0 | 0.0 | 0.00 | 0.04 | 0.04 | 99 | 1021.7 |
| 20260831033001 | 63 | 157 | 0.0 | 0.0 | 0.00 | 0.04 | 0.04 | 99 | 1021.7 |
| 20260831032501 | 63 | 158 | 0.0 | 0.0 | 0.00 | 0.04 | 0.04 | 99 | 1021.7 |
| 20260831031956 | 63 | 161 | 0.0 | 0.0 | 0.00 | 0.04 | 0.04 | 99 | 1022.1 |
| 20260831031456 | 63 | 157 | 0.0 | 0.0 | 0.00 | 0.04 | 0.04 | 99 | 1022.1 |
| 20260831030955 | 63 | 161 | 0.0 | 0.0 | 0.00 | 0.04 | 0.04 | 99 | 1021.7 |
| 20260831030454 | 64 | 161 | 0.0 | 0.0 | 0.00 | 0.04 | 0.04 | 99 | 1021.7 |
| 20260831025953 | 64 | 162 | 0.0 | 0.0 | 0.00 | 0.04 | 0.04 | 99 | 1021.7 |
| 20260831025452 | 64 | 161 | 0.0 | 0.0 | 0.00 | 0.04 | 0.04 | 99 | 1021.7 |
| 20260831024948 | 64 | 161 | 0.0 | 0.0 | 0.00 | 0.04 | 0.04 | 99 | 1021.7 |
| 20260831024443 | 63 | 161 | 0.0 | 0.0 | 0.00 | 0.04 | 0.04 | 99 | 1021.7 |
| 20260831023942 | 63 | 160 | 0.0 | 0.0 | 0.00 | 0.04 | 0.04 | 99 | 1021.7 |
| 20260831023440 | 63 | 161 | 0.0 | 0.0 | 0.00 | 0.04 | 0.04 | 99 | 1021.7 |
| 20260831022936 | 64 | 161 | 0.0 | 0.0 | 0.00 | 0.04 | 0.04 | 99 | 1021.7 |
| 20260831022435 | 64 | 161 | 0.0 | 0.0 | 0.00 | 0.04 | 0.04 | 99 | 1021.7 |
| 20260831021930 | 64 | 161 | 0.0 | 0.0 | 0.00 | 0.04 | 0.04 | 99 | 1021.7 |
| 20260831021423 | 64 | 161 | 0.0 | 0.0 | 0.00 | 0.04 | 0.04 | 99 | 1021.7 |
| 20260831020920 | 64 | 161 | 0.0 | 0.0 | 0.00 | 0.04 | 0.04 | 99 | 1021.7 |
| 20260831020419 | 64 | 161 | 0.0 | 0.0 | 0.00 | 0.04 | 0.04 | 99 | 1021.7 |
| 20260831015914 | 64 | 161 | 0.0 | 0.0 | 0.00 | 0.04 | 0.04 | 99 | 1021.7 |
| 20260831015411 | 64 | 161 | 0.0 | 0.0 | 0.00 | 0.04 | 0.04 | 99 | 1021.7 |
| 20260831014910 | 64 | 161 | 0.0 | 0.0 | 0.00 | 0.04 | 0.04 | 99 | 1021.7 |
| 20260831014405 | 65 | 161 | 0.0 | 0.0 | 0.00 | 0.04 | 0.04 | 99 | 1021.7 |
| 20260831013901 | 65 | 161 | 0.0 | 0.0 | 0.00 | 0.04 | 0.04 | 99 | 1021.7 |
| 20260831013356 | 65 | 160 | 0.0 | 0.0 | 0.00 | 0.04 | 0.04 | 99 | 1021.7 |
| 20260831012856 | 65 | 158 | 0.0 | 0.0 | 0.00 | 0.04 | 0.04 | 99 | 1021.7 |
| 20260831012352 | 65 | 161 | 0.0 | 0.0 | 0.00 | 0.04 | 0.04 | 99 | 1021.3 |
| 20260831011851 | 65 | 166 | 0.0 | 0.0 | 0.00 | 0.04 | 0.04 | 99 | 1021.3 |
| 20260831011346 | 65 | 161 | 0.0 | 0.0 | 0.00 | 0.04 | 0.04 | 99 | 1021.7 |
| 20260831010842 | 65 | 161 | 0.0 | 0.0 | 0.00 | 0.04 | 0.04 | 99 | 1021.3 |
| 20260831010342 | 65 | 161 | 0.0 | 0.0 | 0.00 | 0.04 | 0.04 | 99 | 1021.3 |
| 20260831005838 | 65 | 162 | 0.0 | 0.0 | 0.00 | 0.04 | 0.04 | 99 | 1021.3 |
| 20260831005333 | 65 | 165 | 0.0 | 0.0 | 0.00 | 0.04 | 0.04 | 99 | 1021.3 |
| 20260831004828 | 65 | 162 | 0.0 | 0.0 | 0.00 | 0.04 | 0.04 | 99 | 1021.3 |
| 20260831004324 | 65 | 161 | 0.0 | 0.0 | 0.00 | 0.04 | 0.04 | 99 | 1021.3 |
| 20260831003820 | 65 | 161 | 0.0 | 0.0 | 0.00 | 0.04 | 0.04 | 99 | 1021.7 |
| 20260831003316 | 65 | 161 | 0.0 | 0.0 | 0.00 | 0.04 | 0.04 | 99 | 1021.3 |
| 20260831002815 | 65 | 161 | 0.0 | 0.0 | 0.00 | 0.04 | 0.04 | 99 | 1021.3 |
| 20260831002314 | 65 | 161 | 0.0 | 0.0 | 0.00 | 0.04 | 0.04 | 99 | 1021.0 |
| 20260831001810 | 65 | 168 | 0.0 | 0.0 | 0.00 | 0.04 | 0.04 | 99 | 1021.0 |
| 20260831001305 | 65 | 157 | 0.0 | 0.0 | 0.00 | 0.04 | 0.04 | 99 | 1021.0 |
| 20260831000803 | 66 | 161 | 0.0 | 0.0 | 0.00 | 0.04 | 0.04 | 99 | 1021.0 |
| 20260831000303 | 66 | 168 | 0.0 | 0.0 | 0.00 | 0.04 | 0.04 | 99 | 1021.0 |
| 20260830235801 | 66 | 165 | 0.0 | 0.0 | 0.00 | 0.04 | 0.04 | 99 | 1020.6 |
| 20260830235256 | 66 | 161 | 0.0 | 0.0 | 0.00 | 0.04 | 0.04 | 99 | 1021.0 |
| 20260830234751 | 66 | 161 | 0.0 | 0.0 | 0.00 | 0.04 | 0.04 | 99 | 1021.0 |
| 20260830234247 | 67 | 161 | 0.0 | 0.0 | 0.00 | 0.04 | 0.04 | 99 | 1020.6 |
| 20260830233742 | 67 | 161 | 0.0 | 0.0 | 0.00 | 0.04 | 0.04 | 99 | 1020.6 |
| 20260830233238 | 67 | 162 | 0.0 | 0.0 | 0.00 | 0.04 | 0.04 | 99 | 1020.3 |
| 20260830232733 | 67 | 158 | 0.0 | 0.0 | 0.00 | 0.04 | 0.04 | 99 | 1020.6 |
| 20260830232229 | 67 | 167 | 0.0 | 0.0 | 0.00 | 0.04 | 0.04 | 99 | 1020.6 |
| 20260830231725 | 67 | 161 | 0.0 | 0.0 | 0.00 | 0.04 | 0.04 | 99 | 1020.6 |
| 20260830231225 | 67 | 161 | 0.0 | 0.0 | 0.00 | 0.04 | 0.04 | 99 | 1020.3 |
| 20260830230720 | 67 | 161 | 0.0 | 0.0 | 0.00 | 0.04 | 0.04 | 99 | 1020.6 |
| 20260830230215 | 67 | 173 | 0.0 | 0.0 | 0.00 | 0.04 | 0.04 | 99 | 1020.3 |
| 20260830225709 | 67 | 161 | 0.0 | 0.0 | 0.00 | 0.04 | 0.04 | 99 | 1020.6 |
| 20260830225209 | 67 | 157 | 0.0 | 0.0 | 0.00 | 0.04 | 0.04 | 99 | 1020.3 |
| 20260830224708 | 67 | 167 | 0.0 | 0.0 | 0.00 | 0.04 | 0.04 | 99 | 1020.6 |
| 20260830224204 | 67 | 155 | 0.0 | 0.0 | 0.00 | 0.04 | 0.04 | 99 | 1020.6 |
| 20260830223701 | 67 | 154 | 0.0 | 0.0 | 0.00 | 0.04 | 0.04 | 99 | 1020.6 |
| 20260830223156 | 67 | 142 | 0.0 | 0.0 | 0.00 | 0.04 | 0.04 | 99 | 1020.3 |
| 20260830222656 | 67 | 165 | 0.0 | 0.0 | 0.00 | 0.04 | 0.04 | 99 | 1020.6 |
| 20260830222151 | 67 | 174 | 1.0 | 2.0 | 0.00 | 0.04 | 0.04 | 99 | 1020.6 |
| 20260830221647 | 67 | 170 | 0.0 | 0.0 | 0.00 | 0.04 | 0.04 | 99 | 1020.3 |
| 20260830221143 | 66 | 164 | 0.0 | 0.0 | 0.00 | 0.04 | 0.04 | 99 | 1020.6 |
| 20260830220639 | 66 | 166 | 0.0 | 0.0 | 0.00 | 0.04 | 0.04 | 99 | 1020.3 |
| 20260830220138 | 66 | 181 | 1.0 | 1.0 | 0.00 | 0.04 | 0.04 | 99 | 1020.3 |
| 20260830215637 | 66 | 157 | 0.0 | 0.0 | 0.00 | 0.04 | 0.04 | 99 | 1020.3 |
| 20260830215137 | 66 | 177 | 1.0 | 1.0 | 0.00 | 0.04 | 0.04 | 99 | 1020.3 |
| 20260830214632 | 66 | 169 | 0.0 | 0.0 | 0.00 | 0.04 | 0.04 | 99 | 1020.3 |
| 20260830214127 | 66 | 165 | 0.0 | 0.0 | 0.00 | 0.04 | 0.04 | 99 | 1020.3 |
| 20260830213626 | 66 | 165 | 0.0 | 0.0 | 0.00 | 0.04 | 0.04 | 99 | 1020.6 |
| 20260830213122 | 66 | 165 | 1.0 | 1.0 | 0.00 | 0.04 | 0.04 | 99 | 1020.3 |
| 20260830212618 | 66 | 164 | 0.0 | 0.0 | 0.00 | 0.04 | 0.04 | 99 | 1020.6 |
| 20260830212113 | 66 | 138 | 0.0 | 0.0 | 0.00 | 0.04 | 0.04 | 99 | 1020.6 |
| 20260830211608 | 66 | 159 | 0.0 | 0.0 | 0.00 | 0.04 | 0.04 | 99 | 1020.3 |
| 20260830211107 | 66 | 164 | 0.0 | 0.0 | 0.00 | 0.04 | 0.04 | 99 | 1020.6 |
| 20260830210602 | 66 | 157 | 0.0 | 0.0 | 0.00 | 0.04 | 0.04 | 99 | 1020.6 |
| 20260830205559 | 66 | 159 | 0.0 | 0.0 | 0.00 | 0.04 | 0.04 | 99 | 1021.0 |
| 20260830205055 | 66 | 162 | 0.0 | 0.0 | 0.00 | 0.04 | 0.04 | 99 | 1021.0 |
| 20260830204554 | 66 | 161 | 0.0 | 0.0 | 0.00 | 0.04 | 0.04 | 99 | 1020.6 |
| 20260830204053 | 66 | 151 | 0.0 | 1.0 | 0.00 | 0.04 | 0.04 | 99 | 1021.0 |
| 20260830203550 | 66 | 147 | 0.0 | 0.0 | 0.00 | 0.04 | 0.04 | 99 | 1021.0 |
| 20260830203050 | 66 | 159 | 0.0 | 0.0 | 0.00 | 0.04 | 0.04 | 99 | 1021.0 |
| 20260830202550 | 66 | 162 | 0.0 | 0.0 | 0.00 | 0.04 | 0.04 | 99 | 1020.3 |
| 20260830202046 | 66 | 162 | 0.0 | 0.0 | 0.00 | 0.04 | 0.04 | 99 | 1020.6 |
| 20260830201545 | 66 | 165 | 0.0 | 1.0 | 0.00 | 0.04 | 0.04 | 99 | 1020.6 |
| 20260830201040 | 66 | 171 | 0.0 | 0.0 | 0.00 | 0.04 | 0.04 | 99 | 1020.6 |
| 20260830200536 | 66 | 156 | 0.0 | 0.0 | 0.07 | 0.04 | 0.04 | 99 | 1021.0 |
| 20260830200034 | 66 | 160 | 0.0 | 0.0 | 0.00 | 0.03 | 0.03 | 99 | 1020.6 |
| 20260830195531 | 66 | 161 | 0.0 | 0.0 | 0.00 | 0.03 | 0.03 | 99 | 1020.6 |
| 20260830195028 | 66 | 148 | 0.0 | 1.0 | 0.00 | 0.03 | 0.03 | 99 | 1021.0 |
| 20260830194522 | 66 | 162 | 0.0 | 0.0 | 0.00 | 0.03 | 0.03 | 99 | 1021.0 |
| 20260830194016 | 66 | 158 | 0.0 | 0.0 | 0.00 | 0.03 | 0.03 | 99 | 1020.6 |
| 20260830193516 | 66 | 158 | 0.0 | 0.0 | 0.00 | 0.03 | 0.03 | 99 | 1021.0 |
| 20260830193011 | 66 | 166 | 0.0 | 0.0 | 0.05 | 0.03 | 0.03 | 99 | 1021.0 |
| 20260830192506 | 66 | 155 | 0.0 | 0.0 | 0.00 | 0.02 | 0.02 | 99 | 1021.0 |
| 20260830192001 | 66 | 181 | 0.0 | 0.0 | 0.00 | 0.02 | 0.02 | 99 | 1021.0 |
| 20260830191456 | 66 | 158 | 0.0 | 0.0 | 0.00 | 0.02 | 0.02 | 99 | 1021.3 |
| 20260830190951 | 66 | 136 | 1.0 | 1.0 | 0.07 | 0.02 | 0.02 | 99 | 1021.0 |
| 20260830190447 | 65 | 227 | 1.0 | 2.0 | 0.07 | 0.02 | 0.02 | 99 | 1021.3 |
| 20260830185945 | 66 | 127 | 0.0 | 0.0 | 0.00 | 0.01 | 0.01 | 99 | 1021.7 |
| 20260830185441 | 65 | 160 | 0.0 | 0.0 | 0.00 | 0.01 | 0.01 | 99 | 1021.3 |
| 20260830184936 | 65 | 160 | 0.0 | 0.0 | 0.00 | 0.01 | 0.01 | 99 | 1021.7 |
| 20260830184435 | 66 | 249 | 1.0 | 2.0 | 0.00 | 0.01 | 0.01 | 99 | 1021.3 |
| 20260830183930 | 66 | 314 | 2.0 | 2.0 | 0.00 | 0.01 | 0.01 | 99 | 1021.7 |
| 20260830183429 | 66 | 4 | 3.0 | 3.0 | 0.00 | 0.01 | 0.01 | 99 | 1021.7 |
| 20260830182925 | 66 | 268 | 1.0 | 1.0 | 0.00 | 0.01 | 0.01 | 99 | 1021.3 |
| 20260830182421 | 66 | 295 | 4.0 | 5.0 | 0.00 | 0.01 | 0.01 | 99 | 1021.7 |
| 20260830181917 | 66 | 199 | 2.0 | 3.0 | 0.00 | 0.01 | 0.01 | 98 | 1021.3 |
| 20260830181412 | 66 | 141 | 1.0 | 2.0 | 0.07 | 0.01 | 0.01 | 98 | 1021.7 |
| 20260830180907 | 66 | 142 | 3.0 | 5.0 | 0.07 | 0.01 | 0.01 | 97 | 1021.3 |
| 20260830180406 | 66 | 300 | 3.0 | 3.0 | 0.00 | 0.00 | 0.00 | 96 | 1021.3 |
| 20260830175905 | 66 | 305 | 2.0 | 3.0 | 0.00 | 0.00 | 0.00 | 95 | 1021.7 |
| 20260830175400 | 67 | 160 | 3.0 | 5.0 | 0.00 | 0.00 | 0.00 | 94 | 1021.3 |
| 20260830174855 | 67 | 295 | 3.0 | 5.0 | 0.00 | 0.00 | 0.00 | 93 | 1021.7 |
| 20260830174351 | 68 | 333 | 3.0 | 6.0 | 0.00 | 0.00 | 0.00 | 91 | 1021.3 |
| 20260830173846 | 69 | 329 | 3.0 | 3.0 | 0.00 | 0.00 | 0.00 | 87 | 1021.0 |
| 20260830173340 | 71 | 21 | 6.0 | 9.0 | 0.00 | 0.00 | 0.00 | 82 | 1021.7 |
| 20260830172837 | 73 | 264 | 1.0 | 1.0 | 0.00 | 0.00 | 0.00 | 80 | 1021.0 |
| 20260830172333 | 73 | 171 | 1.0 | 1.0 | 0.00 | 0.00 | 0.00 | 81 | 1021.0 |
| 20260830171828 | 73 | 183 | 1.0 | 2.0 | 0.00 | 0.00 | 0.00 | 80 | 1021.0 |
| 20260830171324 | 73 | 155 | 1.0 | 1.0 | 0.00 | 0.00 | 0.00 | 78 | 1021.3 |
| 20260830170819 | 73 | 155 | 0.0 | 0.0 | 0.00 | 0.00 | 0.00 | 77 | 1021.0 |
| 20260830170318 | 73 | 160 | 0.0 | 0.0 | 0.00 | 0.00 | 0.00 | 77 | 1021.0 |
| 20260830165816 | 73 | 165 | 0.0 | 0.0 | 0.00 | 0.00 | 0.00 | 75 | 1021.0 |
| 20260830165313 | 73 | 182 | 1.0 | 2.0 | 0.00 | 0.00 | 0.00 | 75 | 1021.3 |
| 20260830164809 | 74 | 133 | 1.0 | 1.0 | 0.00 | 0.00 | 0.00 | 74 | 1021.0 |
| 20260830164305 | 74 | 139 | 0.0 | 1.0 | 0.00 | 0.00 | 0.00 | 74 | 1021.0 |
| 20260830163801 | 74 | 159 | 0.0 | 1.0 | 0.00 | 0.00 | 0.00 | 74 | 1021.0 |
| 20260830163256 | 74 | 166 | 0.0 | 0.0 | 0.00 | 0.00 | 0.00 | 74 | 1021.0 |
| 20260830162751 | 75 | 166 | 1.0 | 1.0 | 0.00 | 0.00 | 0.00 | 72 | 1021.0 |
| 20260830162248 | 74 | 168 | 0.0 | 0.0 | 0.00 | 0.00 | 0.00 | 74 | 1021.0 |
| 20260830161743 | 74 | 186 | 1.0 | 1.0 | 0.00 | 0.00 | 0.00 | 73 | 1021.0 |
| 20260830161242 | 75 | 166 | 0.0 | 1.0 | 0.00 | 0.00 | 0.00 | 72 | 1021.0 |
| 20260830160738 | 75 | 166 | 0.0 | 1.0 | 0.00 | 0.00 | 0.00 | 72 | 1021.3 |
| 20260830160238 | 75 | 172 | 0.0 | 0.0 | 0.00 | 0.00 | 0.00 | 72 | 1021.0 |
| 20260830155734 | 75 | 131 | 1.0 | 1.0 | 0.00 | 0.00 | 0.00 | 71 | 1021.0 |
| 20260830155229 | 75 | 161 | 1.0 | 1.0 | 0.00 | 0.00 | 0.00 | 72 | 1021.0 |
| 20260830154724 | 75 | 163 | 1.0 | 1.0 | 0.00 | 0.00 | 0.00 | 72 | 1021.0 |
| 20260830154220 | 76 | 202 | 0.0 | 1.0 | 0.00 | 0.00 | 0.00 | 71 | 1021.0 |
| 20260830153718 | 76 | 165 | 0.0 | 0.0 | 0.00 | 0.00 | 0.00 | 72 | 1021.0 |
| 20260830153217 | 75 | 157 | 0.0 | 0.0 | 0.00 | 0.00 | 0.00 | 74 | 1021.0 |
| 20260830152716 | 75 | 165 | 0.0 | 0.0 | 0.00 | 0.00 | 0.00 | 73 | 1021.3 |
| 20260830152216 | 75 | 155 | 0.0 | 0.0 | 0.00 | 0.00 | 0.00 | 74 | 1021.0 |
| 20260830151711 | 74 | 167 | 1.0 | 1.0 | 0.00 | 0.00 | 0.00 | 75 | 1021.3 |
| 20260830151210 | 74 | 166 | 0.0 | 1.0 | 0.00 | 0.00 | 0.00 | 74 | 1021.0 |
| 20260830150706 | 74 | 164 | 0.0 | 0.0 | 0.00 | 0.00 | 0.00 | 73 | 1021.0 |
| 20260830150205 | 75 | 152 | 1.0 | 1.0 | 0.00 | 0.00 | 0.00 | 73 | 1021.3 |
| 20260830145659 | 75 | 133 | 1.0 | 2.0 | 0.00 | 0.00 | 0.00 | 72 | 1021.0 |
| 20260830145155 | 74 | 153 | 1.0 | 2.0 | 0.00 | 0.00 | 0.00 | 76 | 1021.0 |
| 20260830144650 | 74 | 159 | 0.0 | 0.0 | 0.00 | 0.00 | 0.00 | 76 | 1021.3 |
| 20260830144145 | 74 | 162 | 0.0 | 0.0 | 0.00 | 0.00 | 0.00 | 75 | 1021.0 |
| 20260830143642 | 73 | 165 | 0.0 | 0.0 | 0.00 | 0.00 | 0.00 | 75 | 1021.0 |
| 20260830143139 | 73 | 163 | 0.0 | 1.0 | 0.00 | 0.00 | 0.00 | 76 | 1021.0 |
| 20260830142635 | 73 | 155 | 0.0 | 0.0 | 0.00 | 0.00 | 0.00 | 74 | 1021.0 |
| 20260830142129 | 73 | 159 | 0.0 | 0.0 | 0.00 | 0.00 | 0.00 | 73 | 1021.0 |
| 20260830141625 | 72 | 158 | 0.0 | 0.0 | 0.00 | 0.00 | 0.00 | 74 | 1020.6 |
| 20260830141120 | 73 | 170 | 1.0 | 1.0 | 0.00 | 0.00 | 0.00 | 73 | 1021.0 |
| 20260830140615 | 72 | 161 | 1.0 | 1.0 | 0.00 | 0.00 | 0.00 | 75 | 1021.0 |
| 20260830140115 | 72 | 171 | 1.0 | 1.0 | 0.00 | 0.00 | 0.00 | 74 | 1021.0 |
| 20260830135610 | 72 | 162 | 0.0 | 1.0 | 0.00 | 0.00 | 0.00 | 74 | 1021.0 |
| 20260830135105 | 72 | 136 | 0.0 | 1.0 | 0.00 | 0.00 | 0.00 | 74 | 1021.0 |
| 20260830134601 | 72 | 103 | 3.0 | 5.0 | 0.00 | 0.00 | 0.00 | 74 | 1021.0 |
| 20260830134056 | 72 | 161 | 0.0 | 0.0 | 0.00 | 0.00 | 0.00 | 75 | 1021.0 |
| 20260830133552 | 72 | 145 | 0.0 | 1.0 | 0.00 | 0.00 | 0.00 | 77 | 1021.0 |
| 20260830133046 | 72 | 164 | 0.0 | 0.0 | 0.00 | 0.00 | 0.00 | 77 | 1021.0 |
| 20260830132543 | 71 | 164 | 0.0 | 0.0 | 0.00 | 0.00 | 0.00 | 79 | 1021.0 |